www.pogodaiklimat.ru

Погода и климат >> Архив погоды >> Антарктида >> Halley


ПОГОДА в Halley

  • Прогноз погоды в Halley
  • Монитор погоды в Halley
  • Климат города

АРХИВ ПОГОДЫ в Halley

Время (UTC), дата Ветер
(напр.,м/с)
 
Видим.   Явления Облачность Т
(С)
Тd
(С)
f
(%)
Тe
(С)
Тes
(С)
Комфортность P
(гПа)
Po
(гПа)
Тmin
(С)
Tmax
(С)
R
(мм)
R24
(мм)
S
(см)
16 18.05 В 4 н/о н/о -22.8 -25.6 78 -32 -32 опасность
обморожения
993.4 990.7
18 18.05 В 4 н/о н/о -23.3 -26.2 77 -32 -32 опасность
обморожения
994.0 991.3
20 18.05 В 5 н/о н/о -23.4 -26.2 78 -34 -34 опасность
обморожения
995.0 992.3
19 18.05 В 4 н/о н/о -23.4 -26.2 78 -33 -33 опасность
обморожения
994.3 991.6
21 18.05 В 4 н/о н/о -23.7 -26.6 77 -34 -34 опасность
обморожения
995.4 992.7
22 18.05 В 5 н/о н/о -23.7 -26.6 77 -34 -34 опасность
обморожения
995.9 993.2
23 18.05 В 5 н/о н/о -24.5 -27.5 76 -35 -35 опасность
обморожения
996.4 993.7
00 19.05 В 5 н/о н/о -25.6 -28.7 75 -37 -37 опасность
обморожения
996.8 994.1
02 19.05 В 6 н/о н/о -25.0 -28.1 75 -37 -37 опасность
обморожения
998.1 995.4
01 19.05 В 5 н/о н/о -26.4 -29.6 74 -38 -38 опасность
обморожения
997.5 994.7
03 19.05 В 7 н/о н/о -24.1 -27.0 77 -37 -37 опасность
обморожения
998.3 995.6
06 19.05 В 6 н/о н/о -23.3 -26.2 77 -35 -35 опасность
обморожения
1000.0 997.3
07 19.05 В 7 н/о н/о -24.3 -27.2 77 -37 -37 опасность
обморожения
1000.1 997.4
08 19.05 В 6 н/о н/о -24.0 -27.0 76 -36 -36 опасность
обморожения
1000.9 998.2
09 19.05 В 6 н/о н/о -23.8 -26.8 76 -35 -35 опасность
обморожения
1001.1 998.4
11 19.05 В 5 н/о н/о -23.1 -26.2 76 -34 -34 опасность
обморожения
1002.3 999.6
10 19.05 В 6 н/о н/о -23.6 -26.6 76 -35 -35 опасность
обморожения
1002.0 999.3
12 19.05 В 5 н/о н/о -23.5 -26.6 76 -35 -35 опасность
обморожения
1002.7 1000.0
13 19.05 В 5 н/о н/о -23.6 -26.7 76 -34 -34 опасность
обморожения
1003.0 1000.3
14 19.05 В 4 н/о н/о -24.2 -27.3 75 -34 -34 опасность
обморожения
1003.6 1000.9
15 19.05 В 5 н/о н/о -24.4 -27.5 75 -36 -36 опасность
обморожения
1003.6 1000.9
17 19.05 В 6 н/о н/о -24.5 -27.6 75 -36 -36 опасность
обморожения
1004.3 1001.5
18 19.05 В 6 н/о н/о -24.0 -27.1 75 -36 -36 опасность
обморожения
1004.6 1001.9
19 19.05 В 5 н/о н/о -23.8 -26.9 76 -35 -35 опасность
обморожения
1005.2 1002.5
20 19.05 В 5 н/о н/о -23.2 -26.2 76 -34 -34 опасность
обморожения
1005.7 1003.0
21 19.05 В 5 н/о н/о -23.1 -26.2 76 -33 -33 опасность
обморожения
1006.1 1003.4
22 19.05 В 5 н/о н/о -23.0 -26.0 76 -33 -33 опасность
обморожения
1006.3 1003.6
23 19.05 СВ 4 н/о н/о -23.3 -26.3 76 -33 -33 опасность
обморожения
1006.7 1004.0
00 20.05 В 4 н/о н/о -24.0 -27.1 75 -34 -34 опасность
обморожения
1007.3 1004.5
01 20.05 В 3 н/о н/о -27.0 -30.5 72 -36 -36 опасность
обморожения
1007.8 1005.0
02 20.05 В 0 н/о н/о -28.8 -32.4 71 -29 -29 1007.8 1005.0
03 20.05 В 3 н/о н/о -29.0 -32.8 70 -38 -38 опасность
обморожения
1008.2 1005.4
04 20.05 В 1 н/о н/о -29.0 -32.8 70 -33 -33 опасность
обморожения
1008.5 1005.7
05 20.05 ЮВ 2 н/о н/о -30.0 -33.9 69 -36 -36 опасность
обморожения
1008.6 1005.8
06 20.05 Ю 2 н/о н/о -31.4 -35.3 68 -38 -38 опасность
обморожения
1009.2 1006.4
07 20.05 ЮВ 1 н/о н/о -32.1 -36.1 67 -37 -37 опасность
обморожения
1009.2 1006.3
08 20.05 Ю 2 н/о н/о -33.0 -36.9 68 -41 -41 опасность
обморожения
1010.0 1007.1
09 20.05 ЮВ 2 н/о н/о -32.3 -36.2 68 -40 -40 опасность
обморожения
1010.3 1007.4
10 20.05 н/о н/о -33.9 -38.0 66 1010.2 1007.3
11 20.05 ЮВ 2 н/о н/о -32.2 -36.2 67 -39 -39 опасность
обморожения
1010.4 1007.5
12 20.05 С 2 н/о н/о -32.6 -36.9 65 -39 -39 опасность
обморожения
1010.0 1007.1
13 20.05 штиль 0 н/о н/о -33.5 -37.6 66 -34 -34 опасность
обморожения
1010.4 1007.5
14 20.05 Ю 2 н/о н/о -35.1 -39.3 65 -42 -42 опасность
обморожения
1010.5 1007.6
15 20.05 штиль 0 н/о н/о -33.5 -37.7 66 -34 -34 опасность
обморожения
1010.7 1007.8
17 20.05 ЮЗ 1 н/о н/о -35.9 -40.3 64 -41 -41 опасность
обморожения
1010.7 1007.8
18 20.05 н/о н/о -33.2 -37.1 68 1010.3 1007.4
20 20.05 н/о н/о -35.5 -39.9 64 1010.1 1007.2
21 20.05 З 2 н/о н/о -33.0 -37.0 67 -40 -40 опасность
обморожения
1010.1 1007.2
22 20.05 н/о н/о -33.2 -37.4 66 1009.8 1006.9
23 20.05 н/о н/о -32.9 -37.0 67 1009.5 1006.6
01 21.05 н/о н/о -32.1 -36.3 66 1008.8 1005.9
02 21.05 штиль 0 н/о н/о -32.3 -36.3 67 -32 -32 опасность
обморожения
1008.8 1005.9
03 21.05 СЗ 2 н/о н/о -33.2 -37.2 67 -40 -40 опасность
обморожения
1008.1 1005.2
05 21.05 н/о н/о -32.2 -35.9 69 1007.8 1005.0
06 21.05 н/о н/о -33.5 -37.4 68 1008.0 1005.1
07 21.05 ЮВ 1 н/о н/о -31.5 -35.0 71 -36 -36 опасность
обморожения
1008.0 1005.2
08 21.05 ЮВ 1 н/о н/о -32.2 -35.9 69 -37 -37 опасность
обморожения
1007.7 1004.9
09 21.05 СВ 1 н/о н/о -34.4 -38.5 66 -39 -39 опасность
обморожения
1008.0 1005.1
11 21.05 В 1 н/о н/о -35.0 -39.2 65 -40 -40 опасность
обморожения
1007.3 1004.4
10 21.05 н/о н/о -34.1 -38.1 67 1007.6 1004.7
13 21.05 н/о н/о -34.6 -38.8 65 1007.3 1004.4
15 21.05 В 4 н/о н/о -33.5 -37.6 66 -45 -45 опасность
обморожения
1006.4 1003.5
17 21.05 В 5 н/о н/о -33.3 -37.3 67 -46 -46 опасность
обморожения
1005.6 1002.7
18 21.05 В 4 н/о н/о -32.1 -36.0 68 -43 -43 опасность
обморожения
1005.4 1002.6
20 21.05 В 4 н/о н/о -30.7 -34.5 69 -42 -42 опасность
обморожения
1004.4 1001.6
19 21.05 В 3 н/о н/о -31.1 -35.0 68 -41 -41 опасность
обморожения
1005.0 1002.2
21 21.05 В 4 н/о н/о -29.2 -32.9 70 -40 -40 опасность
обморожения
1002.9 1000.1
22 21.05 В 4 н/о н/о -28.9 -32.7 70 -39 -39 опасность
обморожения
1002.0 999.2
23 21.05 В 5 н/о н/о -29.1 -32.9 70 -42 -42 опасность
обморожения
1001.3 998.5
00 22.05 В 6 н/о н/о -27.9 -32.1 67 -41 -41 опасность
обморожения
1000.0 997.2
02 22.05 СВ 7 н/о н/о -26.5 -31.6 62 -40 -40 опасность
обморожения
997.7 994.9
01 22.05 В 5 н/о н/о -27.0 -31.5 66 -38 -38 опасность
обморожения
999.1 996.3
03 22.05 СВ 5 н/о н/о -26.5 -31.5 63 -38 -38 опасность
обморожения
997.0 994.2
04 22.05 В 7 н/о н/о -27.1 -32.0 63 -41 -41 опасность
обморожения
995.8 993.0
05 22.05 СВ 5 н/о н/о -27.5 -32.6 62 -40 -40 опасность
обморожения
994.7 991.9
06 22.05 СВ 4 н/о н/о -27.8 -32.8 62 -39 -39 опасность
обморожения
994.0 991.2
08 22.05 В 3 н/о н/о -29.2 -33.8 64 -38 -38 опасность
обморожения
991.1 988.3
07 22.05 В 2 н/о н/о -29.6 -34.4 63 -37 -37 опасность
обморожения
992.2 989.4
09 22.05 В 3 н/о н/о -28.3 -32.7 66 -38 -38 опасность
обморожения
989.8 987.0
10 22.05 В 3 н/о н/о -30.5 -34.5 68 -39 -39 опасность
обморожения
988.4 985.6
11 22.05 ЮВ 3 н/о н/о -30.8 -34.3 71 -40 -40 опасность
обморожения
987.4 984.6
12 22.05 ЮВ 3 н/о н/о -29.7 -33.3 71 -39 -39 опасность
обморожения
986.0 983.2
14 22.05 В 3 н/о н/о -29.4 -32.8 72 -39 -39 опасность
обморожения
984.1 981.3
13 22.05 В 4 н/о н/о -28.4 -31.9 72 -39 -39 опасность
обморожения
985.0 982.3
15 22.05 В 1 н/о н/о -28.8 -32.3 72 -33 -33 опасность
обморожения
982.8 980.1
17 22.05 ЮЗ 2 н/о н/о -32.4 -35.9 71 -40 -40 опасность
обморожения
981.8 979.0
18 22.05 Ю 2 н/о н/о -31.8 -35.3 71 -40 -40 опасность
обморожения
981.6 978.8
19 22.05 Ю 2 н/о н/о -32.5 -36.2 69 -39 -39 опасность
обморожения
981.1 978.3
20 22.05 Ю 2 н/о н/о -31.6 -35.0 72 -38 -38 опасность
обморожения
980.7 977.9
22 22.05 ЮВ 5 н/о н/о -32.6 -36.3 69 -45 -45 опасность
обморожения
979.9 977.1
23 22.05 В 4 н/о н/о -33.2 -37.1 68 -45 -45 опасность
обморожения
979.5 976.7
00 23.05 В 4 н/о н/о -33.8 -37.9 66 -46 -46 опасность
обморожения
979.4 976.6
01 23.05 В 4 н/о н/о -35.2 -39.5 65 -47 -47 опасность
обморожения
979.1 976.3
02 23.05 В 3 н/о н/о -35.4 -39.5 66 -46 -46 опасность
обморожения
979.2 976.4
03 23.05 В 3 н/о н/о -36.9 -41.3 63 -47 -47 опасность
обморожения
979.4 976.6
04 23.05 В 5 н/о н/о -36.5 -40.9 64 -50 -50 опасность
обморожения
979.5 976.7
05 23.05 В 5 н/о н/о -35.8 -40.1 64 -50 -50 опасность
обморожения
979.9 977.1
06 23.05 В 6 н/о н/о -35.4 -39.7 65 -50 -50 опасность
обморожения
980.8 978.0
07 23.05 В 4 н/о н/о -36.2 -40.5 64 -49 -49 опасность
обморожения
981.1 978.3
08 23.05 В 5 н/о н/о -36.4 -40.8 64 -51 -51 опасность
обморожения
981.5 978.7
09 23.05 В 6 н/о н/о -35.8 -40.1 64 -51 -51 опасность
обморожения
982.1 979.3
10 23.05 В 5 н/о н/о -34.6 -38.8 65 -48 -48 опасность
обморожения
982.6 979.8
11 23.05 В 6 н/о н/о -33.4 -37.4 67 -48 -48 опасность
обморожения
982.8 980.0
12 23.05 В 7 н/о н/о -34.1 -38.3 66 -50 -50 опасность
обморожения
983.1 980.3
13 23.05 В 8 н/о н/о -32.8 -36.8 67 -49 -49 опасность
обморожения
984.1 981.3
14 23.05 В 5 н/о н/о -33.9 -38.0 66 -48 -48 опасность
обморожения
984.6 981.8
15 23.05 В 7 н/о н/о -32.7 -36.8 67 -48 -48 опасность
обморожения
984.8 982.0
17 23.05 В 7 н/о н/о -32.6 -36.5 68 -48 -48 опасность
обморожения
985.7 982.9
18 23.05 В 7 н/о н/о -32.3 -36.3 67 -48 -48 опасность
обморожения
986.0 983.2
19 23.05 В 6 н/о н/о -32.5 -36.5 67 -47 -47 опасность
обморожения
986.3 983.5
20 23.05 В 5 н/о н/о -33.3 -37.3 67 -47 -47 опасность
обморожения
986.6 983.8
21 23.05 В 5 н/о н/о -33.8 -37.9 66 -47 -47 опасность
обморожения
987.3 984.5
23 23.05 В 5 н/о н/о -33.9 -38.1 66 -47 -47 опасность
обморожения
988.3 985.5
22 23.05 В 4 н/о н/о -34.3 -38.5 66 -46 -46 опасность
обморожения
988.0 985.2
00 24.05 В 5 н/о н/о -34.0 -38.3 65 -47 -47 опасность
обморожения
988.6 985.8
01 24.05 В 3 н/о н/о -35.0 -39.3 65 -46 -46 опасность
обморожения
989.4 986.6
02 24.05 В 3 н/о н/о -36.5 -41.0 63 -48 -48 опасность
обморожения
989.6 986.8
03 24.05 В 3 н/о н/о -36.4 -40.9 63 -47 -47 опасность
обморожения
989.7 986.9
05 24.05 В 4 н/о н/о -35.9 -40.1 65 -48 -48 опасность
обморожения
990.2 987.4
04 24.05 В 3 н/о н/о -37.2 -41.7 63 -47 -47 опасность
обморожения
990.3 987.4
06 24.05 В 2 н/о н/о -35.8 -40.2 64 -44 -44 опасность
обморожения
990.8 988.0
07 24.05 В 3 н/о н/о -35.0 -39.3 65 -45 -45 опасность
обморожения
991.2 988.4
08 24.05 В 3 н/о н/о -35.4 -39.7 65 -45 -45 опасность
обморожения
991.8 989.0
09 24.05 В 3 н/о н/о -35.1 -39.3 65 -45 -45 опасность
обморожения
991.8 989.0
11 24.05 В 2 н/о н/о -34.1 -38.2 66 -42 -42 опасность
обморожения
992.0 989.2
10 24.05 В 3 н/о н/о -33.7 -37.8 66 -43 -43 опасность
обморожения
991.8 989.0
12 24.05 В 2 н/о н/о -35.4 -39.6 65 -42 -42 опасность
обморожения
992.4 989.6
13 24.05 ЮВ 3 н/о н/о -35.7 -39.9 65 -47 -47 опасность
обморожения
992.3 989.5
14 24.05 В 2 н/о н/о -34.9 -38.9 67 -43 -43 опасность
обморожения
992.4 989.6
15 24.05 В 3 н/о н/о -34.9 -39.1 65 -45 -45 опасность
обморожения
992.4 989.6
17 24.05 В 2 н/о н/о -33.6 -37.5 68 -42 -42 опасность
обморожения
992.1 989.3
18 24.05 В 1 н/о н/о -35.4 -39.6 65 -40 -40 опасность
обморожения
991.9 989.1
19 24.05 н/о н/о -35.3 -39.6 65 992.0 989.2
20 24.05 Ю 2 н/о н/о -36.0 -40.3 64 -43 -43 опасность
обморожения
991.8 989.0
21 24.05 ЮВ 2 н/о н/о -36.8 -41.2 63 -44 -44 опасность
обморожения
991.5 988.6
22 24.05 н/о н/о -36.6 -40.9 64 991.4 988.5
23 24.05 ЮВ 1 н/о н/о -33.7 -37.7 67 -38 -38 опасность
обморожения
991.1 988.3
00 25.05 н/о н/о -34.8 -39.0 65 990.6 987.8
01 25.05 Ю 1 н/о н/о -35.8 -40.1 64 -41 -41 опасность
обморожения
990.0 987.2
02 25.05 ЮЗ 1 н/о н/о -37.7 -42.2 63 -43 -43 опасность
обморожения
989.8 986.9
03 25.05 ЮЗ 2 н/о н/о -35.6 -39.6 67 -43 -43 опасность
обморожения
989.4 986.6
04 25.05 ЮЗ 1 н/о н/о -36.3 -40.5 65 -41 -41 опасность
обморожения
988.5 985.7
05 25.05 З 2 н/о н/о -37.5 -42.0 63 -45 -45 опасность
обморожения
987.8 984.9
09 25.05 н/о н/о -39.6 -44.4 60 987.1 984.2

 

Местоположение метеостанции Halley (Антарктида): широта -75.50 долгота -26.65 высота над уровнем моря 30 м.

В архиве по умолчанию представлена погода в Halley за последнюю неделю. Архивные данные за месяц целиком и за предыдущие месяцы, начиная с января 2011 года, Вы можете получить, выбрав интересующий диапазон дат из раскрывающегося списка и нажав кнопку "Ввод!".


*Определитесь, кто Вы:
робот инопланетянин человек

Внимание! Время в таблицах - всемирное. Для получения местного времени необходимо прибавить поправку, которая в Halley равна 0 ч.

Смотрите также архив погоды в соседних городах и на ближайших метеорологических станциях:

Погода в Base Belgrano Ii (Антарктида) (332 км)
Погода в Nordenskiold Base (Антарктида) (482 км)
Погода в Soerasen (Антарктида) (695 км)
Погода в Kohnen Ep9 (Антарктида) (750 км)
Погода в Neumayer Station (Антарктида) (797 км)
Погода в SANAE (Антарктида) (851 км)
Погода в Limbert Aws (Антарктида) (883 км)
Погода в Troll (Антарктида) (970 км)
Погода в Butler Island (Антарктида) (1082 км)
Погода в Sky Blue (Антарктида) (1250 км)

Пояснения к столбцам:

Ветер - указаны скорость ветра в м/с - средняя за 10 мин, порывы в срок и между сроками (в фигурных скобках) и направление, откуда дует ветер: С - северный, СВ - северо-восточный, В - восточный, ЮВ - юго-восточный, Ю - южный, ЮЗ - юго-западный, З - западный, СЗ - северо-западный.
Видимость - горизонтальная дальность видимости в метрах или километрах. При видимости от 1 до 10 км при отсутствии осадков обычно наблюдается дымка, при ухудшении видимости до 1 км и менее - туман. В сухую погоду видимость может ухудшаться дымом, пылью или мглою.
Явления - указаны атмосферные явления, наблюдавшиеся в срок или в последний час перед сроком; фигурными скобками обозначены явления, наблюдавшиеся между сроками (за 1-3 часа до срока); квадратными скобками обозначены град или гололедные отложения с указанием их диаметра в мм.
Облачность - указаны через наклонную черту общая и нижняя облачность в баллах и высота нижней границы облаков в метрах; квадратными скобками обозначены формы облаков: Ci - перистые, Cs - перисто-слоистые, Cc - перисто-кучевые, Ac - высококучевые, As - высокослоистые, Sc - слоисто-кучевые, Ns - слоисто-дождевые, Cu - кучевые, Cb - кучево-дождевые. Подробнее классификацию облаков см. в Атласе облаков (PDF).
T - Температура воздуха - температура, измеренная на высоте 2 м над землей.
Td - Температура точки росы - температура, при понижении до которой содержащийся в воздухе водяной пар достигнет насыщения.
f - Относительная влажность воздуха - влажноcть воздуха, измеренная на высоте 2 м над землей.
Te - Эффективная температура - температура, которую ощущает одетый по сезону человек в тени. Характеристика душности погоды. При расчете учитывается влияние влажности воздуха и скорости ветра на теплоощущения человека.
Tes - Эффективная температура на солнце - температура, которую ощущает человек, с поправкой на солнечный нагрев. Характеристика знойности погоды. Зависит от высоты солнца над горизонтом, облачности и скорости ветра. Ночью, в пасмурную погоду, а также при ветре 12 м/с и более поправка равна нулю.
P - Атмосферное давление - приведенное к уровню моря атмосферное давление.
Po - Атмосферное давление - измеренное на уровне метеостанции атмосферное давление.
Tmin - Минимальная температура - минимум температуры воздуха на высоте 2 м над землей.
Tmax - Максимальная температура - максимум температуры воздуха на высоте 2 м над землей.
R - Количество осадков - Количество выпавших осадков за период времени, мм. При наведении курсора мыши на число - период времени, за который выпало указанное количество осадков.
R24 - Количество осадков - Количество выпавших осадков за 24 часа, мм.
S - Снежный покров - Высота снежного покрова, см. При наведении курсора мыши на число - состояние снежного покрова и степень покрытия местности в баллах.